Regional Weather Roundup
Issued by NWS Goodland, KS

Home | Current Version | Previous Version | Graphics & Text | Print | Product List | Glossary On
Versions: 1 2 3 4 5 6 7 8 9 10 11 12 13 14 15 16 17 18 19 20 21 22 23 24 25 26 27 28 29 30 31 32 33 34 35 36 37 38 39 40 41 42 43 44 45 46 47 48 49 50
000
ASUS43 KGLD 082208
RWRGLD

GOODLAND FORECAST AREA HOURLY WEATHER ROUNDUP
NATIONAL WEATHER SERVICE GOODLAND KS
300 PM MST MON FEB 08 2016

...OFFICIAL OBSERVATIONS...

CITY           SKY/WX    TMP DP  RH WIND       PRES   REMARKS
GOODLAND KS    CLOUDY    37  21  52 N21G28    30.28S
HILL CITY KS   CLOUDY    38  18  44 NW14G25   30.28S
IMPERIAL NEB   MOSUNNY   37  19  48 NW21G28   30.28S
MCCOOK NEB     MOSUNNY   37  19  48 NW21      30.27S
AKRON CO       CLOUDY    37  29  72 NW10      30.29S
BURLINGTON CO  CLOUDY    38  23  55 NW10      30.29S
LIMON CO       SUNNY     35  24  64 W10       30.31F
$$

...UNOFFICIAL OBSERVATIONS...

CITY           SKY/WX    TMP DP  RH WIND       PRES   REMARKS
COLBY KS       SUNNY     37  25  60 NW17      30.28F
GOVE KS          N/A     39  32  76 MISG        N/A
LENORA KS        N/A     35  32  89 MISG        N/A
NORTON KS      SUNNY     36  18  48 NW16      30.25
KIT CARSON CO    N/A     41  27  56 MISG        N/A
YUMA CO          N/A     38  29  70 N12         N/A
$$



USA.gov is the U.S. government's official web portal to all federal, state and local government web resources and services.